Date String (YYYY-MM-DD hh:mm:ss) UTC,Instrument flags,absolute air pressure of the measurement (hPa),sample flow rate (lpm),inlet stack bypass flow (lpm),air temperature of the measurement (°C),ambient temperature measured by the external sensor (°C),aerosol sample conditioner tube jacket temperature (°C),OPC LED temperature (°C),internal box temperature (°C),relative humidity of the measurement (%),span deviation,mass concentration of particles derived from Lorenz-Mie calculation of OPC scattering (μg/m³),mass concentration of particles derived from Lorenz-Mie calculation of OPC scattering (μg/m³),mass concentration of particles derived from Lorenz-Mie calculation of OPC scattering (μg/m³)
DateTimeUTC,F1_M11,P_M11,Q1_M11,Q2_M11,T1_M11,T2_M11,T3_M11,T4_M11,T5_M11,U1_M11,ZSPAN_M11,X2_M11,X0_M11,X1_M11
2023-11-19 18:00:00,SystemResetWarning,0821.5,5.00,000.00,025.1,024.3,000.0,033.4,026.5,14.3,0000.0,0001.60,0006.13,0001.28
2023-11-19 18:01:00,SystemResetWarning,0821.6,5.00,000.00,025.1,024.2,000.0,033.4,026.5,14.7,0000.0,0001.58,0006.08,0001.26
2023-11-19 18:02:00,SystemResetWarning,0821.7,4.99,000.00,025.1,024.2,000.0,033.4,026.5,14.7,0000.0,0001.58,0005.92,0001.24
2023-11-19 18:03:00,SystemResetWarning,0821.7,5.00,000.00,025.1,024.3,000.0,033.4,026.5,14.8,0000.0,0001.56,0004.64,0001.24
2023-11-19 18:04:00,SystemResetWarning,0822.0,4.99,000.00,025.1,024.3,000.0,033.4,026.5,14.5,0000.0,0001.52,0004.30,0001.21
2023-11-19 18:05:00,SystemResetWarning,0821.9,5.00,000.00,025.1,024.3,000.0,033.4,026.5,14.0,0000.0,0001.51,0004.31,0001.19
2023-11-19 18:06:00,SystemResetWarning,0822.1,5.00,000.00,025.2,024.3,000.0,033.4,026.5,14.2,0000.0,0001.49,0004.42,0001.17
2023-11-19 18:07:00,SystemResetWarning,0822.0,5.00,000.00,025.2,024.3,000.0,033.4,026.5,14.2,0000.0,0001.48,0005.01,0001.18
2023-11-19 18:08:00,SystemResetWarning,0821.9,5.00,000.00,025.2,024.3,000.0,033.4,026.5,14.3,0000.0,0001.46,0005.02,0001.17
2023-11-19 18:09:00,SystemResetWarning,0822.0,5.00,000.00,025.2,024.3,000.0,033.5,026.5,14.3,0000.0,0001.47,0004.21,0001.16
2023-11-19 18:10:00,SystemResetWarning,0822.0,5.00,000.00,025.2,024.3,000.0,033.5,026.5,14.4,0000.0,0001.42,0004.10,0001.13
2023-11-19 18:11:00,SystemResetWarning,0822.0,5.00,000.00,025.2,024.3,000.0,033.5,026.5,14.6,0000.0,0001.36,0003.60,0001.09
2023-11-19 18:12:00,SystemResetWarning,0821.9,5.00,000.00,025.2,024.4,000.0,033.5,026.6,14.7,0000.0,0001.31,0003.29,0001.07
2023-11-19 18:13:00,SystemResetWarning,0821.7,5.00,000.00,025.2,024.4,000.0,033.5,026.6,14.7,0000.0,0001.28,0003.19,0001.07
2023-11-19 18:14:00,SystemResetWarning,0821.5,5.00,000.00,025.2,024.4,000.0,033.5,026.6,14.7,0000.0,0001.27,0003.20,0001.05
2023-11-19 18:15:00,SystemResetWarning,0821.4,5.00,000.00,025.2,024.4,000.0,033.5,026.6,14.6,0000.0,0001.26,0003.29,0001.03
2023-11-19 18:16:00,SystemResetWarning,0821.4,5.00,000.00,025.2,024.4,000.0,033.5,026.6,14.5,0000.0,0001.24,0003.24,0001.03
2023-11-19 18:17:00,SystemResetWarning,0821.4,4.99,000.00,025.2,024.4,000.0,033.5,026.6,14.4,0000.0,0001.22,0003.14,0001.02
2023-11-19 18:18:00,SystemResetWarning,0821.3,5.00,000.00,025.2,024.4,000.0,033.5,026.6,14.4,0000.0,0001.19,0002.41,0001.00
2023-11-19 18:19:00,SystemResetWarning,0821.3,5.01,000.00,025.3,024.4,000.0,033.5,026.6,14.2,0000.0,0001.19,0002.75,0001.00
2023-11-19 18:20:00,SystemResetWarning,0821.3,5.01,000.00,025.3,024.4,000.0,033.5,026.6,14.1,0000.0,0001.14,0002.86,0000.98
2023-11-19 18:21:00,SystemResetWarning,0821.3,4.99,000.00,025.3,024.4,000.0,033.5,026.6,14.2,0000.0,0001.16,0002.67,0000.98
2023-11-19 18:22:00,SystemResetWarning,0821.3,5.00,000.00,025.3,024.4,000.0,033.5,026.6,14.2,0000.0,0001.19,0002.69,0000.99
2023-11-19 18:23:00,SystemResetWarning,0821.3,5.00,000.00,025.3,024.4,000.0,033.5,026.7,14.3,0000.0,0001.22,0002.75,0001.01
2023-11-19 18:24:00,SystemResetWarning,0821.2,4.99,000.00,025.3,024.4,000.0,033.5,026.7,14.2,0000.0,0001.24,0002.79,0001.02
2023-11-19 18:25:00,SystemResetWarning,0821.2,5.01,000.00,025.3,024.5,000.0,033.6,026.7,14.0,0000.0,0001.22,0002.74,0001.02
2023-11-19 18:26:00,SystemResetWarning,0821.2,5.00,000.00,025.3,024.5,000.0,033.6,026.7,13.8,0000.0,0001.22,0002.63,0001.02
2023-11-19 18:27:00,SystemResetWarning,0821.2,5.01,000.00,025.3,024.5,000.0,033.6,026.7,13.8,0000.0,0001.19,0002.57,0001.02
2023-11-19 18:28:00,SystemResetWarning,0821.2,5.00,000.00,025.3,024.5,000.0,033.6,026.7,13.9,0000.0,0001.19,0002.61,0001.01
2023-11-19 18:29:00,SystemResetWarning,0821.2,5.00,000.00,025.4,024.5,000.0,033.6,026.8,14.2,0000.0,0001.19,0002.63,0001.00
2023-11-19 18:30:00,SystemResetWarning,0821.2,5.00,000.00,025.4,024.5,000.0,033.6,026.8,14.3,0000.0,0001.17,0002.29,0000.98
2023-11-19 18:31:00,SystemResetWarning,0821.1,5.00,000.00,025.4,024.5,000.0,033.6,026.8,14.5,0000.0,0001.16,0001.56,0000.97
2023-11-19 18:32:00,SystemResetWarning,0821.1,5.00,000.00,025.4,024.5,000.0,033.6,026.8,14.5,0000.0,0001.14,0001.51,0000.96
2023-11-19 18:33:00,SystemResetWarning,0821.1,5.00,000.00,025.4,024.6,000.0,033.6,026.8,14.4,0000.0,0001.15,0001.56,0000.96
2023-11-19 18:34:00,SystemResetWarning,0821.2,5.00,000.00,025.4,024.6,000.0,033.6,026.8,14.5,0000.0,0001.12,0001.53,0000.95
2023-11-19 18:35:00,SystemResetWarning,0821.2,5.00,000.00,025.4,024.6,000.0,033.6,026.8,14.4,0000.0,0001.15,0001.60,0000.95
2023-11-19 18:36:00,SystemResetWarning,0821.1,5.00,000.00,025.4,024.6,000.0,033.7,026.8,14.3,0000.0,0001.16,0001.61,0000.95
2023-11-19 18:37:00,SystemResetWarning,0821.1,4.99,000.00,025.5,024.6,000.0,033.7,026.8,14.2,0000.0,0001.16,0001.63,0000.94
2023-11-19 18:38:00,SystemResetWarning,0821.1,5.00,000.00,025.5,024.6,000.0,033.7,026.8,14.2,0000.0,0001.20,0001.72,0000.96
2023-11-19 18:39:00,SystemResetWarning,0821.0,5.00,000.00,025.5,024.6,000.0,033.7,026.9,14.2,0000.0,0001.20,0001.71,0000.97
2023-11-19 18:40:00,SystemResetWarning,0821.0,5.00,000.00,025.5,024.6,000.0,033.7,026.9,14.2,0000.0,0001.22,0001.82,0000.99
2023-11-19 18:41:00,SystemResetWarning,0820.9,5.00,000.00,025.5,024.6,000.0,033.7,026.8,14.2,0000.0,0001.27,0001.96,0001.00
2023-11-19 18:42:00,SystemResetWarning,0821.2,5.00,000.00,025.5,024.6,000.0,033.7,026.8,14.2,0000.0,0001.31,0002.05,0001.01
2023-11-19 18:43:00,SystemResetWarning,0821.0,5.00,000.00,025.5,024.6,000.0,033.7,026.8,14.1,0000.0,0001.33,0002.09,0001.01
2023-11-19 18:44:00,SystemResetWarning,0820.8,5.00,000.00,025.5,024.6,000.0,033.7,026.8,14.1,0000.0,0001.34,0002.12,0001.02
2023-11-19 18:45:00,SystemResetWarning,0820.8,5.00,000.00,025.5,024.6,000.0,033.7,026.8,14.1,0000.0,0001.34,0002.10,0001.02
2023-11-19 18:46:00,SystemResetWarning,0820.8,5.00,000.00,025.5,024.6,000.0,033.7,026.8,14.1,0000.0,0001.32,0002.08,0001.01
2023-11-19 18:47:00,SystemResetWarning,0820.8,5.00,000.00,025.5,024.6,000.0,033.7,026.8,14.1,0000.0,0001.30,0002.08,0000.99
2023-11-19 18:48:00,SystemResetWarning,0820.8,5.00,000.00,025.5,024.6,000.0,033.8,026.8,14.1,0000.0,0001.29,0002.07,0000.98
2023-11-19 18:49:00,SystemResetWarning,0820.8,5.00,000.00,025.5,024.6,000.0,033.8,026.8,14.4,0000.0,0001.27,0002.02,0000.98
2023-11-19 18:50:00,SystemResetWarning,0820.8,5.00,000.00,025.5,024.6,000.0,033.8,026.8,14.2,0000.0,0001.27,0002.06,0000.97
2023-11-19 18:51:00,SystemResetWarning,0820.8,5.01,000.00,025.5,024.6,000.0,033.8,026.8,14.2,0000.0,0001.26,0002.07,0000.97
2023-11-19 18:52:00,SystemResetWarning,0820.8,5.00,000.00,025.5,024.6,000.0,033.8,026.8,14.3,0000.0,0001.27,0002.15,0000.96
2023-11-19 18:53:00,SystemResetWarning,0820.8,5.00,000.00,025.5,024.6,000.0,033.8,026.8,14.2,0000.0,0001.27,0002.17,0000.96
2023-11-19 18:54:00,SystemResetWarning,0820.8,5.00,000.00,025.5,024.7,000.0,033.8,026.9,14.2,0000.0,0001.27,0002.22,0000.96
2023-11-19 18:55:00,SystemResetWarning,0820.8,5.00,000.00,025.5,024.7,000.0,033.8,026.9,14.2,0000.0,0001.25,0002.16,0000.96
2023-11-19 18:56:00,SystemResetWarning,0820.8,5.00,000.00,025.5,024.7,000.0,033.8,026.9,14.2,0000.0,0001.26,0002.21,0000.96
2023-11-19 18:57:00,SystemResetWarning,0820.7,5.00,000.00,025.5,024.7,000.0,033.8,026.9,14.2,0000.0,0001.24,0002.16,0000.96
2023-11-19 18:58:00,SystemResetWarning,0820.8,5.00,000.00,025.5,024.7,000.0,033.8,026.9,14.2,0000.0,0001.28,0002.28,0000.98
2023-11-19 18:59:00,SystemResetWarning,0820.8,5.00,000.00,025.6,024.7,000.0,033.8,026.9,14.2,0000.0,0001.28,0002.27,0000.98
